QFA491 YSSY-YMML

Flight info

Callsign QFA491
Flight time 1h 10m
Altitude 38000
Route WOL H65 LEECE Q29 ML
Aircraft B738/M-SDE2E3FGHIRWXY/LB1

Departure

Time 2026-05-01 09:51
Airport Sydney Kingsford Smith International Airport (YSSY)

Arrival

Time 2026-05-01 11:01
Airport Melbourne Airport (YMML)
Time Latitude Longitude Altitude Speed Heading
2026-05-01 08:50 -33.93146 151.17857 29 ft 0 kts 191°
2026-05-01 09:30 -33.93110 151.17860 29 ft 3 kts 163°
2026-05-01 09:31 -33.93091 151.17857 29 ft 3 kts 202°
2026-05-01 09:31 -33.93077 151.17871 29 ft 3 kts 251°
2026-05-01 09:31 -33.93075 151.17892 29 ft 0 kts 280°
2026-05-01 09:35 -33.93068 151.17849 29 ft 1 kts 280°
2026-05-01 09:35 -33.93066 151.17833 29 ft 3 kts 280°
2026-05-01 09:36 -33.93058 151.17782 29 ft 10 kts 280°
2026-05-01 09:36 -33.93028 151.17694 29 ft 12 kts 297°
2026-05-01 09:36 -33.93006 151.17596 29 ft 11 kts 276°
2026-05-01 09:36 -33.93043 151.17539 29 ft 9 kts 206°
2026-05-01 09:37 -33.93102 151.17520 29 ft 9 kts 173°
2026-05-01 09:37 -33.93284 151.17566 29 ft 19 kts 167°
2026-05-01 09:37 -33.93412 151.17592 29 ft 17 kts 181°
2026-05-01 09:38 -33.93620 151.17621 29 ft 14 kts 161°
2026-05-01 09:38 -33.93707 151.17671 29 ft 14 kts 160°
2026-05-01 09:38 -33.93803 151.17700 29 ft 16 kts 166°
2026-05-01 09:39 -33.94014 151.17807 28 ft 17 kts 167°
2026-05-01 09:39 -33.94127 151.17837 28 ft 17 kts 167°
2026-05-01 09:39 -33.94239 151.17866 29 ft 16 kts 167°
2026-05-01 09:40 -33.94353 151.17895 29 ft 18 kts 168°
2026-05-01 09:40 -33.94606 151.17903 29 ft 18 kts 169°
2026-05-01 09:40 -33.94727 151.17933 29 ft 18 kts 167°
2026-05-01 09:41 -33.94853 151.17967 29 ft 19 kts 168°
2026-05-01 09:41 -33.95088 151.18044 29 ft 16 kts 133°
2026-05-01 09:41 -33.95088 151.18169 29 ft 16 kts 77°
2026-05-01 09:42 -33.95065 151.18299 29 ft 15 kts 78°
2026-05-01 09:42 -33.95046 151.18406 28 ft 10 kts 78°
2026-05-01 09:42 -33.95105 151.18534 29 ft 10 kts 144°
2026-05-01 09:43 -33.95263 151.18691 29 ft 18 kts 152°
2026-05-01 09:43 -33.95390 151.18738 29 ft 18 kts 168°
2026-05-01 09:43 -33.95514 151.18770 29 ft 18 kts 167°
2026-05-01 09:44 -33.95754 151.18832 29 ft 19 kts 167°
2026-05-01 09:44 -33.95888 151.18867 29 ft 20 kts 168°
2026-05-01 09:44 -33.96023 151.18902 29 ft 19 kts 168°
2026-05-01 09:45 -33.96153 151.18935 29 ft 19 kts 168°
2026-05-01 09:45 -33.96405 151.19001 29 ft 21 kts 167°
2026-05-01 09:45 -33.96558 151.19041 29 ft 23 kts 168°
2026-05-01 09:46 -33.96688 151.19073 29 ft 16 kts 173°
2026-05-01 09:46 -33.96787 151.19062 29 ft 14 kts 184°
2026-05-01 09:46 -33.96885 151.19081 29 ft 15 kts 168°
2026-05-01 09:46 -33.97000 151.19111 29 ft 18 kts 168°
2026-05-01 09:47 -33.97106 151.19149 29 ft 11 kts 142°
2026-05-01 09:47 -33.97121 151.19228 28 ft 8 kts 77°
2026-05-01 09:47 -33.97116 151.19254 28 ft 1 kts 76°
2026-05-01 09:49 -33.97112 151.19272 27 ft 6 kts 76°
2026-05-01 09:50 -33.97083 151.19349 27 ft 12 kts 44°
2026-05-01 09:50 -33.97025 151.19363 24 ft 9 kts 350°
2026-05-01 09:50 -33.96898 151.19330 25 ft 44 kts 348°
2026-05-01 09:50 -33.96338 151.19186 24 ft 118 kts 348°
2026-05-01 09:51 -33.95330 151.18924 85 ft 172 kts 347°
2026-05-01 09:51 -33.94128 151.18579 753 ft 181 kts 351°
2026-05-01 09:51 -33.92962 151.18764 1723 ft 170 kts 37°
2026-05-01 09:51 -33.92334 151.19990 2273 ft 189 kts 85°
2026-05-01 09:52 -33.92605 151.21542 3120 ft 189 kts 108°
2026-05-01 09:52 -33.93088 151.23019 3965 ft 192 kts 106°
2026-05-01 09:52 -33.93469 151.24584 4620 ft 202 kts 108°
2026-05-01 09:52 -33.94200 151.26034 5316 ft 203 kts 114°
2026-05-01 09:53 -33.94404 151.27688 5765 ft 209 kts 79°
2026-05-01 09:53 -33.94147 151.29513 5978 ft 235 kts 79°
2026-05-01 09:53 -33.93920 151.31585 6269 ft 261 kts 82°
2026-05-01 09:53 -33.93742 151.33797 6965 ft 269 kts 83°
2026-05-01 09:54 -33.93604 151.36063 7777 ft 273 kts 84°
2026-05-01 09:54 -33.93495 151.38354 8596 ft 276 kts 85°
2026-05-01 09:54 -33.93406 151.40688 9396 ft 281 kts 85°
2026-05-01 09:54 -33.93327 151.43050 10203 ft 285 kts 85°
2026-05-01 09:55 -33.93250 151.45453 10932 ft 289 kts 86°
2026-05-01 09:55 -33.93174 151.47880 11678 ft 292 kts 86°
2026-05-01 09:55 -33.93410 151.50331 12300 ft 304 kts 108°
2026-05-01 09:55 -33.94556 151.52533 12487 ft 332 kts 135°
2026-05-01 09:56 -33.96598 151.53983 12675 ft 357 kts 162°
2026-05-01 09:56 -33.99116 151.54240 13128 ft 371 kts 186°
2026-05-01 09:56 -34.01603 151.53330 13728 ft 377 kts 207°
2026-05-01 09:56 -34.03712 151.51473 14486 ft 378 kts 225°
2026-05-01 09:57 -34.05523 151.49151 14999 ft 385 kts 229°
2026-05-01 09:57 -34.07275 151.46706 15705 ft 385 kts 230°
2026-05-01 09:57 -34.09009 151.44231 16285 ft 390 kts 230°
2026-05-01 09:57 -34.10776 151.41715 16896 ft 393 kts 230°
2026-05-01 09:58 -34.12552 151.39209 17561 ft 395 kts 229°
2026-05-01 09:58 -34.14353 151.36691 18110 ft 399 kts 229°
2026-05-01 09:58 -34.16185 151.34146 18684 ft 402 kts 229°
2026-05-01 09:58 -34.18037 151.31583 19211 ft 405 kts 229°
2026-05-01 09:59 -34.19892 151.29020 19750 ft 407 kts 229°
2026-05-01 09:59 -34.21765 151.26433 20261 ft 410 kts 229°
2026-05-01 09:59 -34.23649 151.23832 20782 ft 412 kts 230°
2026-05-01 09:59 -34.25535 151.21225 21359 ft 414 kts 230°
2026-05-01 10:00 -34.27435 151.18596 21864 ft 416 kts 230°
2026-05-01 10:00 -34.29319 151.15986 22310 ft 419 kts 230°
2026-05-01 10:00 -34.31243 151.13319 22813 ft 422 kts 230°
2026-05-01 10:00 -34.33176 151.10639 23310 ft 423 kts 230°
2026-05-01 10:01 -34.35118 151.07943 23799 ft 426 kts 230°
2026-05-01 10:01 -34.37067 151.05234 24212 ft 428 kts 230°
2026-05-01 10:01 -34.39027 151.02509 24588 ft 431 kts 230°
2026-05-01 10:01 -34.41005 150.99757 24963 ft 433 kts 230°
2026-05-01 10:02 -34.42990 150.96994 25345 ft 436 kts 230°
2026-05-01 10:02 -34.44980 150.94221 25715 ft 438 kts 230°
2026-05-01 10:02 -34.46980 150.91431 26088 ft 440 kts 230°
2026-05-01 10:02 -34.48992 150.88622 26441 ft 443 kts 230°
2026-05-01 10:03 -34.51018 150.85791 26785 ft 445 kts 230°
2026-05-01 10:03 -34.53051 150.82950 27127 ft 447 kts 230°
2026-05-01 10:03 -34.55093 150.80093 27457 ft 450 kts 230°
2026-05-01 10:03 -34.57097 150.77168 27775 ft 451 kts 233°
2026-05-01 10:04 -34.58995 150.74112 28097 ft 453 kts 236°
2026-05-01 10:04 -34.60838 150.71005 28423 ft 455 kts 236°
2026-05-01 10:04 -34.62673 150.67869 28726 ft 458 kts 236°
2026-05-01 10:04 -34.64524 150.64715 29036 ft 460 kts 236°
2026-05-01 10:05 -34.66401 150.61539 29336 ft 462 kts 236°
2026-05-01 10:05 -34.68289 150.58366 29630 ft 464 kts 236°
2026-05-01 10:05 -34.70187 150.55192 29910 ft 467 kts 236°
2026-05-01 10:05 -34.72103 150.51995 30246 ft 467 kts 236°
2026-05-01 10:06 -34.74015 150.48807 30656 ft 466 kts 236°
2026-05-01 10:06 -34.75921 150.45626 31072 ft 463 kts 236°
2026-05-01 10:06 -34.77811 150.42470 31485 ft 460 kts 236°
2026-05-01 10:06 -34.79639 150.39414 32357 ft 443 kts 236°
2026-05-01 10:07 -34.81420 150.36437 33271 ft 430 kts 236°
2026-05-01 10:07 -34.83174 150.33497 33609 ft 430 kts 236°
2026-05-01 10:07 -34.86729 150.27518 33739 ft 442 kts 236°
2026-05-01 10:08 -34.90373 150.21384 33990 ft 450 kts 236°
2026-05-01 10:08 -34.92207 150.18298 34332 ft 449 kts 236°
2026-05-01 10:08 -34.94027 150.15233 34737 ft 444 kts 236°
2026-05-01 10:09 -34.95836 150.12183 35064 ft 442 kts 236°
2026-05-01 10:09 -34.97629 150.09155 35301 ft 442 kts 236°
2026-05-01 10:09 -34.99429 150.06113 35511 ft 442 kts 236°
2026-05-01 10:09 -35.01219 150.03085 35903 ft 437 kts 236°
2026-05-01 10:10 -35.02983 150.00102 36472 ft 428 kts 236°
2026-05-01 10:10 -35.04710 149.97178 36971 ft 422 kts 236°
2026-05-01 10:10 -35.08145 149.91356 37330 ft 424 kts 236°
2026-05-01 10:11 -35.09871 149.88430 37453 ft 426 kts 236°
2026-05-01 10:11 -35.11608 149.85484 37499 ft 429 kts 236°
2026-05-01 10:11 -35.15131 149.79501 37564 ft 437 kts 236°
2026-05-01 10:12 -35.18092 149.74465 37705 ft 440 kts 236°
2026-05-01 10:12 -35.22254 149.67375 38006 ft 443 kts 236°
2026-05-01 10:13 -35.24053 149.64303 38092 ft 444 kts 236°
2026-05-01 10:13 -35.27659 149.58142 38309 ft 446 kts 236°
2026-05-01 10:14 -35.33100 149.48825 38397 ft 450 kts 236°
2026-05-01 10:14 -35.36743 149.42571 38389 ft 452 kts 236°
2026-05-01 10:15 -35.40399 149.36286 38380 ft 453 kts 236°
2026-05-01 10:15 -35.44052 149.29993 38379 ft 453 kts 236°
2026-05-01 10:16 -35.47708 149.23684 38370 ft 453 kts 236°
2026-05-01 10:17 -35.53161 149.14253 38380 ft 453 kts 236°
2026-05-01 10:17 -35.58611 149.04800 38385 ft 451 kts 236°
2026-05-01 10:18 -35.63450 148.96388 38401 ft 450 kts 236°
2026-05-01 10:19 -35.67037 148.90136 38396 ft 449 kts 237°
2026-05-01 10:19 -35.70636 148.83855 38403 ft 449 kts 237°
2026-05-01 10:20 -35.76031 148.74414 38402 ft 449 kts 237°
2026-05-01 10:20 -35.79615 148.68129 38394 ft 448 kts 237°
2026-05-01 10:21 -35.84992 148.58678 38393 ft 448 kts 237°
2026-05-01 10:22 -35.90348 148.49227 38384 ft 448 kts 237°
2026-05-01 10:23 -35.95667 148.39761 38376 ft 447 kts 237°
2026-05-01 10:23 -36.00981 148.30280 38374 ft 447 kts 237°
2026-05-01 10:24 -36.08051 148.17630 38365 ft 448 kts 238°
2026-05-01 10:25 -36.15103 148.04989 38356 ft 448 kts 237°
2026-05-01 10:26 -36.18646 147.98646 38345 ft 447 kts 238°
2026-05-01 10:27 -36.25705 147.85964 38351 ft 447 kts 238°
2026-05-01 10:28 -36.30994 147.76428 38341 ft 447 kts 238°
2026-05-01 10:28 -36.36271 147.66880 38340 ft 447 kts 238°
2026-05-01 10:29 -36.41535 147.57316 38342 ft 448 kts 238°
2026-05-01 10:30 -36.48575 147.44480 37097 ft 456 kts 238°
2026-05-01 10:31 -36.52043 147.38150 36440 ft 429 kts 238°
2026-05-01 10:31 -36.55316 147.32162 35667 ft 414 kts 239°
2026-05-01 10:32 -36.58504 147.26312 34916 ft 403 kts 239°
2026-05-01 10:32 -36.60066 147.23439 34541 ft 400 kts 239°
2026-05-01 10:32 -36.63171 147.17724 33720 ft 395 kts 239°
2026-05-01 10:33 -36.66222 147.12102 32940 ft 390 kts 239°
2026-05-01 10:33 -36.69240 147.06534 32202 ft 384 kts 239°
2026-05-01 10:34 -36.70728 147.03785 31826 ft 382 kts 239°
2026-05-01 10:34 -36.72218 147.01034 31264 ft 385 kts 239°
2026-05-01 10:34 -36.73733 146.98232 30544 ft 394 kts 239°
2026-05-01 10:35 -36.76798 146.92568 29579 ft 391 kts 239°
2026-05-01 10:35 -36.78311 146.89771 29188 ft 387 kts 239°
2026-05-01 10:35 -36.79802 146.87011 28865 ft 382 kts 239°
2026-05-01 10:35 -36.81286 146.84263 28600 ft 377 kts 239°
2026-05-01 10:36 -36.84224 146.78800 28127 ft 396 kts 239°
2026-05-01 10:36 -36.85810 146.75842 27825 ft 415 kts 239°
2026-05-01 10:36 -36.87456 146.72770 27454 ft 434 kts 239°
2026-05-01 10:37 -36.89144 146.69623 27018 ft 447 kts 239°
2026-05-01 10:37 -36.92721 146.62954 26077 ft 472 kts 239°
2026-05-01 10:37 -36.94553 146.59540 25602 ft 471 kts 239°
2026-05-01 10:38 -36.96368 146.56156 25127 ft 467 kts 239°
2026-05-01 10:38 -36.98169 146.52791 24660 ft 464 kts 239°
2026-05-01 10:38 -36.99960 146.49438 24185 ft 462 kts 239°
2026-05-01 10:38 -37.01728 146.46121 23684 ft 460 kts 239°
2026-05-01 10:39 -37.03500 146.42793 23175 ft 457 kts 239°
2026-05-01 10:39 -37.05253 146.39498 22703 ft 453 kts 239°
2026-05-01 10:39 -37.06993 146.36225 22244 ft 449 kts 239°
2026-05-01 10:39 -37.08713 146.32987 21667 ft 447 kts 239°
2026-05-01 10:40 -37.10430 146.29747 21085 ft 443 kts 239°
2026-05-01 10:40 -37.12135 146.26526 20616 ft 439 kts 239°
2026-05-01 10:40 -37.13802 146.23370 20174 ft 435 kts 239°
2026-05-01 10:40 -37.15469 146.20212 19746 ft 432 kts 239°
2026-05-01 10:41 -37.17120 146.17080 19319 ft 429 kts 239°
2026-05-01 10:41 -37.18740 146.14004 18893 ft 426 kts 239°
2026-05-01 10:41 -37.21985 146.07836 17972 ft 421 kts 239°
2026-05-01 10:42 -37.23595 146.04771 17538 ft 418 kts 239°
2026-05-01 10:42 -37.25192 146.01728 17103 ft 415 kts 239°
2026-05-01 10:42 -37.26776 145.98707 16689 ft 412 kts 239°
2026-05-01 10:42 -37.28346 145.95712 16280 ft 410 kts 239°
2026-05-01 10:43 -37.29904 145.92737 15868 ft 407 kts 239°
2026-05-01 10:43 -37.31458 145.89769 15472 ft 405 kts 239°
2026-05-01 10:43 -37.33002 145.86829 15064 ft 403 kts 239°
2026-05-01 10:43 -37.34547 145.83889 14666 ft 402 kts 239°
2026-05-01 10:44 -37.36087 145.80959 14249 ft 400 kts 239°
2026-05-01 10:44 -37.37619 145.78038 13820 ft 399 kts 239°
2026-05-01 10:44 -37.39138 145.75138 13377 ft 393 kts 239°
2026-05-01 10:44 -37.40626 145.72297 12962 ft 385 kts 239°
2026-05-01 10:45 -37.42069 145.69538 12568 ft 372 kts 239°
2026-05-01 10:45 -37.43462 145.66875 12186 ft 357 kts 239°
2026-05-01 10:45 -37.44806 145.64305 11823 ft 344 kts 239°
2026-05-01 10:45 -37.46102 145.61827 11475 ft 333 kts 239°
2026-05-01 10:46 -37.47362 145.59429 11151 ft 322 kts 239°
2026-05-01 10:46 -37.48574 145.57122 10825 ft 313 kts 239°
2026-05-01 10:46 -37.49768 145.54845 10456 ft 307 kts 239°
2026-05-01 10:46 -37.50927 145.52636 10189 ft 298 kts 240°
2026-05-01 10:47 -37.52052 145.50489 9993 ft 290 kts 239°
2026-05-01 10:47 -37.53142 145.48404 9664 ft 288 kts 240°
2026-05-01 10:47 -37.54248 145.46291 9363 ft 287 kts 240°
2026-05-01 10:47 -37.55344 145.44195 9056 ft 284 kts 240°
2026-05-01 10:48 -37.56419 145.42140 8762 ft 277 kts 240°
2026-05-01 10:48 -37.57473 145.40121 8491 ft 274 kts 240°
2026-05-01 10:48 -37.58518 145.38116 8218 ft 273 kts 240°
2026-05-01 10:48 -37.59558 145.36120 7925 ft 271 kts 240°
2026-05-01 10:49 -37.60587 145.34145 7648 ft 269 kts 240°
2026-05-01 10:49 -37.61614 145.32173 7378 ft 268 kts 240°
2026-05-01 10:49 -37.62631 145.30218 7117 ft 266 kts 240°
2026-05-01 10:49 -37.63648 145.28263 6834 ft 266 kts 240°
2026-05-01 10:50 -37.64660 145.26317 6561 ft 265 kts 240°
2026-05-01 10:50 -37.65665 145.24389 6401 ft 259 kts 240°
2026-05-01 10:50 -37.66640 145.22522 6297 ft 251 kts 241°
2026-05-01 10:50 -37.67594 145.20690 6057 ft 249 kts 241°
2026-05-01 10:51 -37.68544 145.18861 5825 ft 248 kts 242°
2026-05-01 10:51 -37.69489 145.17041 5567 ft 248 kts 241°
2026-05-01 10:51 -37.70428 145.15233 5307 ft 247 kts 242°
2026-05-01 10:51 -37.71349 145.13460 5194 ft 240 kts 242°
2026-05-01 10:52 -37.72238 145.11722 5100 ft 230 kts 244°
2026-05-01 10:52 -37.73221 145.10174 5011 ft 226 kts 231°
2026-05-01 10:52 -37.74379 145.08834 4808 ft 229 kts 216°
2026-05-01 10:52 -37.75786 145.07888 4480 ft 230 kts 211°
2026-05-01 10:53 -37.77201 145.06943 4102 ft 232 kts 212°
2026-05-01 10:53 -37.78634 145.05984 3753 ft 232 kts 212°
2026-05-01 10:53 -37.80056 145.05028 3455 ft 231 kts 212°
2026-05-01 10:53 -37.81467 145.04075 3163 ft 229 kts 212°
2026-05-01 10:54 -37.82877 145.03121 2828 ft 230 kts 211°
2026-05-01 10:54 -37.84260 145.02167 2561 ft 230 kts 211°
2026-05-01 10:54 -37.85687 145.01164 2514 ft 235 kts 212°
2026-05-01 10:54 -37.86971 144.99949 2467 ft 226 kts 238°
2026-05-01 10:55 -37.87698 144.98269 2489 ft 217 kts 251°
2026-05-01 10:55 -37.88309 144.96564 2473 ft 206 kts 251°
2026-05-01 10:55 -37.88822 144.94933 2473 ft 193 kts 268°
2026-05-01 10:55 -37.88648 144.93351 2508 ft 179 kts 298°
2026-05-01 10:56 -37.88120 144.91939 2498 ft 174 kts 308°
2026-05-01 10:56 -37.87342 144.90780 2493 ft 172 kts 322°
2026-05-01 10:56 -37.86428 144.89817 2490 ft 171 kts 327°
2026-05-01 10:56 -37.85479 144.88952 2444 ft 165 kts 330°
2026-05-01 10:57 -37.84524 144.88189 2413 ft 161 kts 333°
2026-05-01 10:57 -37.83527 144.87516 2334 ft 165 kts 338°
2026-05-01 10:57 -37.82466 144.86952 2241 ft 165 kts 342°
2026-05-01 10:57 -37.81400 144.86514 2142 ft 157 kts 348°
2026-05-01 10:58 -37.80330 144.86216 2118 ft 157 kts 352°
2026-05-01 10:58 -37.79284 144.85995 2118 ft 152 kts 354°
2026-05-01 10:58 -37.78246 144.85836 1904 ft 148 kts 355°
2026-05-01 10:58 -37.77235 144.85693 1709 ft 144 kts 356°
2026-05-01 10:59 -37.76250 144.85553 1482 ft 141 kts 352°
2026-05-01 10:59 -37.75283 144.85337 1345 ft 140 kts 352°
2026-05-01 10:59 -37.74323 144.85158 1277 ft 139 kts 354°
2026-05-01 10:59 -37.73367 144.84995 1180 ft 141 kts 351°
2026-05-01 11:00 -37.72376 144.84805 1038 ft 146 kts 352°
2026-05-01 11:00 -37.71372 144.84604 927 ft 147 kts 352°
2026-05-01 11:00 -37.70349 144.84430 775 ft 148 kts 354°
2026-05-01 11:00 -37.69328 144.84239 537 ft 148 kts 351°
2026-05-01 11:01 -37.68328 144.84050 357 ft 142 kts 351°
2026-05-01 11:01 -37.67489 144.83897 366 ft 84 kts 352°
2026-05-01 11:01 -37.67060 144.83831 383 ft 44 kts
2026-05-01 11:01 -37.66847 144.83911 390 ft 22 kts 21°
2026-05-01 11:02 -37.66751 144.83960 393 ft 13 kts 22°
2026-05-01 11:02 -37.66698 144.83986 395 ft 12 kts 21°
2026-05-01 11:02 -37.66619 144.84024 397 ft 12 kts 22°
2026-05-01 11:02 -37.66556 144.84098 399 ft 14 kts 66°
2026-05-01 11:03 -37.66537 144.84240 402 ft 19 kts 82°
2026-05-01 11:03 -37.66515 144.84417 403 ft 22 kts 81°
2026-05-01 11:03 -37.66494 144.84599 405 ft 20 kts 82°
2026-05-01 11:03 -37.66477 144.84735 407 ft 13 kts 80°
2026-05-01 11:04 -37.66465 144.84846 408 ft 13 kts 82°
2026-05-01 11:04 -37.66453 144.84955 408 ft 12 kts 85°
2026-05-01 11:04 -37.66495 144.85042 406 ft 14 kts 155°
2026-05-01 11:04 -37.66610 144.85064 402 ft 18 kts 174°
2026-05-01 11:05 -37.66713 144.85083 397 ft 12 kts 171°
2026-05-01 11:05 -37.66761 144.85065 398 ft 5 kts 253°
2026-05-01 11:05 -37.66763 144.85031 394 ft 2 kts 264°
2026-05-01 11:05 -37.66764 144.85023 394 ft 0 kts 263°
2026-05-01 11:06 -37.66764 144.85017 394 ft 0 kts 262°